sat.trackr.live / text

‹ back to catalog

STARLINK-4612

NORAD 53750 · 2022-107BC

PAYLOAD ACTIVE UNKNOWN

§ Identity

Operator
Country
US
Launch date
2022-09-05
Launch site
AFETR
Launch vehicle
Mass (kg)
RCS (m²)

Purposes: comms

External: N2YO · Heavens-Above · Gunter

§ Orbital elements

Epoch: 2026-09-20T19:42:53.788896Z

Period
93.85 min
Inclination
53.1594°
Eccentricity
0.0001133
Mean motion
15.34391441 rev/d
Perigee alt
462.0 km
Apogee alt
463.5 km
Semi-major
6,840.9 km
B*
1.7295e-5
RAAN
91.9066°
Arg perigee
89.6936°
Mean anomaly
270.4196°
Rev number
22,428

§ Raw data

STARLINK-46121 53750U 22107BC  26263.82145589  .00000208  00000+0  17295-4 0  99902 53750  53.1594  91.9066 0001133  89.6936 270.4196 15.34391441224281

JSON: /api/v1/satellites/53750 · /tle

For live sub-satellite position, see the globe view (requires WebGL).

§ Visibility from observer

Set your observer location to see the next 7 days of passes ≥ 10°. The values pass through the URL so the page stays shareable.

No JS? Fill the form by hand. The geolocation button needs JavaScript.